TimeMDT,TemperatureF,Dew PointF,Humidity,Sea Level PressureIn,VisibilityMPH,Wind Direction,Wind SpeedMPH,Gust SpeedMPH,PrecipitationIn,Events,Conditions,WindDirDegrees,DateUTC
12:15 AM,42.8,26.6,53,29.92,10.0,SSE,9.2,-,N/A,,Clear,150,2011-10-20 06:15:00
12:55 AM,39.2,26.6,61,29.92,10.0,SE,6.9,-,N/A,,Clear,140,2011-10-20 06:55:00
1:15 AM,37.4,26.6,65,29.92,10.0,West,5.8,-,N/A,,Clear,260,2011-10-20 07:15:00
1:35 AM,39.2,26.6,61,29.92,10.0,SSE,6.9,-,N/A,,Clear,150,2011-10-20 07:35:00
1:55 AM,39.2,26.6,61,29.91,10.0,SSE,5.8,-,N/A,,Clear,150,2011-10-20 07:55:00
2:15 AM,39.2,26.6,61,29.91,10.0,SSE,4.6,-,N/A,,Clear,150,2011-10-20 08:15:00
2:35 AM,37.4,26.6,65,29.91,10.0,SSE,6.9,-,N/A,,Clear,150,2011-10-20 08:35:00
2:55 AM,35.6,26.6,70,29.91,10.0,SSE,6.9,-,N/A,,Clear,160,2011-10-20 08:55:00
3:15 AM,37.4,26.6,65,29.90,10.0,SSE,6.9,-,N/A,,Clear,160,2011-10-20 09:15:00
3:35 AM,35.6,26.6,70,29.90,10.0,SSE,8.1,-,N/A,,Clear,160,2011-10-20 09:35:00
4:15 AM,35.6,26.6,70,29.89,10.0,South,10.4,-,N/A,,Clear,170,2011-10-20 10:15:00
4:35 AM,35.6,26.6,70,29.88,10.0,South,8.1,-,N/A,,Clear,170,2011-10-20 10:35:00
4:55 AM,35.6,26.6,70,29.88,10.0,SSE,5.8,-,N/A,,Clear,160,2011-10-20 10:55:00
5:15 AM,33.8,24.8,70,29.88,10.0,South,6.9,-,N/A,,Clear,180,2011-10-20 11:15:00
5:35 AM,33.8,24.8,70,29.88,10.0,South,5.8,-,N/A,,Clear,180,2011-10-20 11:35:00
5:55 AM,33.8,24.8,70,29.88,10.0,SSW,6.9,-,N/A,,Clear,200,2011-10-20 11:55:00
6:15 AM,32.0,24.8,75,29.88,10.0,SSW,10.4,-,N/A,,Clear,200,2011-10-20 12:15:00
6:35 AM,33.8,26.6,75,29.88,10.0,SSW,6.9,-,N/A,,Clear,200,2011-10-20 12:35:00
6:55 AM,32.0,24.8,75,29.88,10.0,South,10.4,-,N/A,,Clear,190,2011-10-20 12:55:00
7:35 AM,32.0,26.6,80,29.88,10.0,South,9.2,-,N/A,,Clear,190,2011-10-20 13:35:00
7:55 AM,33.8,28.4,81,29.88,10.0,SSW,6.9,-,N/A,,Clear,200,2011-10-20 13:55:00
8:15 AM,37.4,28.4,70,29.88,10.0,South,11.5,-,N/A,,Clear,190,2011-10-20 14:15:00
8:35 AM,37.4,28.4,70,29.89,10.0,South,9.2,-,N/A,,Clear,190,2011-10-20 14:35:00
8:55 AM,37.4,28.4,70,29.90,10.0,SSW,10.4,-,N/A,,Clear,200,2011-10-20 14:55:00
9:15 AM,39.2,28.4,65,29.89,10.0,South,11.5,-,N/A,,Clear,190,2011-10-20 15:15:00
9:35 AM,41.0,28.4,61,29.89,10.0,South,10.4,-,N/A,,Clear,190,2011-10-20 15:35:00
9:55 AM,42.8,30.2,61,29.89,10.0,South,11.5,-,N/A,,Clear,190,2011-10-20 15:55:00
10:15 AM,42.8,30.2,61,29.88,10.0,South,10.4,-,N/A,,Clear,190,2011-10-20 16:15:00
10:35 AM,44.6,30.2,57,29.90,10.0,South,9.2,-,N/A,,Clear,190,2011-10-20 16:35:00
10:55 AM,46.4,30.2,53,29.89,10.0,South,9.2,-,N/A,,Clear,180,2011-10-20 16:55:00
11:15 AM,50.0,32.0,50,29.89,10.0,South,9.2,-,N/A,,Clear,180,2011-10-20 17:15:00
11:35 AM,51.8,33.8,50,29.88,10.0,South,9.2,-,N/A,,Clear,170,2011-10-20 17:35:00
11:55 AM,53.6,33.8,47,29.88,10.0,SSE,9.2,-,N/A,,Clear,160,2011-10-20 17:55:00
12:35 PM,55.4,33.8,44,29.87,10.0,SSE,9.2,-,N/A,,Clear,150,2011-10-20 18:35:00
12:55 PM,57.2,35.6,44,29.87,10.0,SSE,10.4,-,N/A,,Clear,150,2011-10-20 18:55:00
1:55 PM,62.6,37.4,39,29.86,10.0,SSE,8.1,-,N/A,,Clear,150,2011-10-20 19:55:00
2:15 PM,64.4,37.4,37,29.86,10.0,West,6.9,-,N/A,,Clear,260,2011-10-20 20:15:00
2:35 PM,68.0,35.6,30,29.86,10.0,WNW,15.0,20.7,N/A,,Clear,290,2011-10-20 20:35:00
3:15 PM,66.2,35.6,32,29.86,10.0,WNW,15.0,20.7,N/A,,Clear,290,2011-10-20 21:15:00
3:35 PM,66.2,35.6,32,29.86,10.0,WNW,13.8,-,N/A,,Clear,290,2011-10-20 21:35:00
3:55 PM,68.0,35.6,30,29.86,10.0,WNW,17.3,-,N/A,,Clear,290,2011-10-20 21:55:00
4:35 PM,66.2,35.6,32,29.87,10.0,WNW,13.8,-,N/A,,Clear,300,2011-10-20 22:35:00
4:56 PM,66.2,35.6,32,29.87,10.0,WNW,17.3,21.9,N/A,,Clear,300,2011-10-20 22:56:00
5:15 PM,62.6,35.6,37,29.88,10.0,WNW,10.4,-,N/A,,Clear,300,2011-10-20 23:15:00
5:35 PM,60.8,35.6,39,29.88,10.0,WNW,6.9,-,N/A,,Clear,290,2011-10-20 23:35:00
5:55 PM,59.0,35.6,42,29.89,10.0,WNW,8.1,-,N/A,,Clear,300,2011-10-20 23:55:00
6:15 PM,59.0,35.6,42,29.89,10.0,NW,11.5,-,N/A,,Clear,310,2011-10-21 00:15:00
6:35 PM,57.2,35.6,44,29.90,10.0,WNW,10.4,-,N/A,,Clear,300,2011-10-21 00:35:00
6:55 PM,55.4,33.8,44,29.90,10.0,WNW,10.4,-,N/A,,Clear,300,2011-10-21 00:55:00
7:15 PM,51.8,33.8,50,29.91,10.0,WNW,8.1,-,N/A,,Clear,300,2011-10-21 01:15:00
7:35 PM,50.0,33.8,54,29.91,10.0,West,6.9,-,N/A,,Clear,280,2011-10-21 01:35:00
7:55 PM,50.0,33.8,54,29.92,10.0,West,9.2,-,N/A,,Clear,270,2011-10-21 01:55:00
8:35 PM,51.8,35.6,54,29.92,10.0,WNW,9.2,-,N/A,,Clear,300,2011-10-21 02:35:00
8:55 PM,50.0,33.8,54,29.93,10.0,WNW,5.8,-,N/A,,Clear,290,2011-10-21 02:55:00
9:15 PM,48.2,33.8,58,29.93,10.0,West,5.8,-,N/A,,Clear,270,2011-10-21 03:15:00
9:35 PM,48.2,35.6,62,29.94,10.0,WNW,9.2,-,N/A,,Clear,290,2011-10-21 03:35:00
10:15 PM,48.2,33.8,58,29.95,10.0,WNW,8.1,-,N/A,,Clear,290,2011-10-21 04:15:00
10:35 PM,44.6,33.8,66,29.95,10.0,West,9.2,-,N/A,,Mostly Cloudy,280,2011-10-21 04:35:00
10:55 PM,48.2,35.6,62,29.95,10.0,West,10.4,-,N/A,,Overcast,280,2011-10-21 04:55:00
11:35 PM,46.4,35.6,66,29.95,10.0,West,13.8,-,N/A,,Clear,280,2011-10-21 05:35:00
11:55 PM,44.6,33.8,66,29.95,10.0,West,8.1,-,N/A,,Clear,280,2011-10-21 05:55:00